Погода в Амштеттене

Австрия     48°07′29″N   14°52′09″E
темп.,
°C
ветер,
м/с
пор.,
м/с
влажн.,
%
обл.,
%
осадки,
мм/ч
давл.,
гПа
погр.,
м
17 апреля, сб
сб1723:00−1юз118029 0.0 102410
02:00−1ююз228437 0.0 102323
05:000юз118098 0.0 102343
08:00+2зсз117391 0.0 1022279
11:00+5сз236991 0.1 1021977
14:00+7сз2260100 0.1 10191375
17:00+6з1166100 0.0 1019762
20:00+4с1179100 0.1 102011
18 апреля, вс
вс1823:00+3всв1191100 0.0 102042
02:00+3ссв1194100 0.1 1020135
05:00+2с1197100 0.2 1020322
08:00+2ссз1199100 0.6 1020169
11:00+3зсз1198100 0.3 1021218
14:00+5сз1181100 0.4 1020671
17:00+7ссз1170100 0.1 1019966
20:00+4св1183100 0.2 102010
19 апреля, пн
пн1923:00+4ююз1291100 0.5 1020111
02:00+4зюз2496100 0.8 1020320
05:00+3з2695100 0.3 1019633
08:00+3з2698100 1.1 1020519
11:00+3з2699100 2.1 1020505
14:00+3з2799100 4.0 1019622
17:00+3зюз2598100 3.0 1018578
20:00+2ююз2398100 6.4 1018159
20 апреля, вт
вт2023:00+3юз2598100 2.0 1018529
02:00+3ююз2798100 3.5 1017485
05:00+3юз3898100 2.5 1016725
08:00+3зюз3598100 5.8 1017318
11:00+5юз239587 0.9 1017321
14:00+9зюз347374 1.4 10151064
17:00+9зсз357653 1.5 1015829
20:00+5ююз228831 2.6 101623
21 апреля, ср
ср2123:00+3ююз229337 0.0 101728
02:00+2ююз229363 0.1 101830
05:00+1ююз239350 0.0 101837
08:00+4ююз238594 0.0 1018124
11:00+11зсз23665 0.1 1017833
14:00+13зсз35549 0.6 10151610
17:00+13з256037 0.7 10141347
20:00+7ююз2285100 1.5 101516